[[[{"header":{"parameterUnit":"kt","parameterCategory":2,"dx":1,"dy":1,"la1":30.253999710083008,"la2":30.299108505249023,"lo1":-89.0895004272461,"lo2":-89.04439544677734,"nx":28,"ny":28,"refTime":"2022-10-13T21:00:00:Z","depth":0,"parameterNumber":1,"parameterNumberName":"U-component_of_WINDS"},"data":[0.9649,0.9778,0.9802,0.9961,1.0009,1.0124,1.0173,1.0239,1.0298,1.0439,1.0525,1.0563,1.0634,1.0744,1.084,1.0856,1.0897,1.0926,1.094,1.0783,1.0764,1.0745,1.0716,1.0933,1.0934,1.11,1.1102,1.1103,0.9539,0.9587,0.9677,0.978,0.9859,0.9846,0.9927,0.9995,1.0098,1.017,1.0255,1.0382,1.0485,1.0546,1.0651,1.0716,1.0717,1.0743,1.074,1.0753,1.0585,1.0554,1.0741,1.0741,1.0741,1.074,1.074,1.074,0.9344,0.942,0.9495,0.9593,0.9651,0.9721,0.9798,0.9842,0.9931,1.004,1.0051,1.0168,1.0247,1.0384,1.0436,1.053,1.0506,1.0543,1.0553,1.0563,1.0572,1.0336,1.0548,1.0548,1.0548,1.0547,1.0547,0,0.921,0.9225,0.9311,0.9405,0.9477,0.9553,0.9626,0.9674,0.9713,0.9785,0.9892,0.9959,1.009,1.0196,1.0298,1.0345,1.0341,1.0342,1.0368,1.0367,1.0354,1.0368,1.0098,1.0336,1.0334,1.0333,1.0332,1.0331,0.902,0.9103,0.9191,0.9249,0.9294,0.9387,0.9447,0.9474,0.9538,0.9633,0.9699,0.9803,0.9889,1.0058,1.011,1.0209,1.0209,1.0298,1.0224,1.022,1.0217,1.0213,1.0224,1.0313,1.0316,1.0317,1.0319,0,0.8912,0.8947,0.9083,0.9161,0.9184,0.9271,0.934,0.9417,0.945,0.9561,0.9588,0.9642,0.9747,0.9784,0.9911,0.9929,1.0081,1.0075,1.0055,1.0058,1.0145,1.0138,1.0412,1.0451,1.0221,1.0223,1.0225,0,0.8765,0.8873,0.892,0.8996,0.9118,0.9141,0.9262,0.9302,0.9366,0.9454,0.9452,0.9534,0.9568,0.9657,0.9682,0.9811,0.9834,0.9856,0.9862,0.9859,0.9857,0.9897,0.9888,0.9866,0.9864,0.9863,0.9862,0,0.8595,0.8743,0.8867,0.8907,0.9001,0.906,0.9102,0.9173,0.9232,0.9314,0.9354,0.9447,0.95,0.9574,0.9605,0.9554,0.9763,0.9699,0.9786,0.9786,0.9833,0.983,1.006,0.986,0.986,0.9859,0.9859,0,0.8482,0.8561,0.8734,0.8813,0.8851,0.8932,0.9026,0.9103,0.9179,0.9199,0.9263,0.9267,0.9378,0.9313,0.947,0.9396,0.9449,0.9479,0.9486,0.9501,0.9428,0.9559,0.977,0.9796,0.9513,0.951,0.9507,0,0.8281,0.8462,0.8482,0.8646,0.8735,0.8727,0.8818,0.8883,0.8917,0.9,0.9037,0.9131,0.909,0.9125,0.9197,0.9241,0.9338,0.9228,0.9355,0.9359,0.934,0.9533,0.9557,0.9719,0.9471,0.9474,0.9477,0,0.8129,0.8237,0.8265,0.8312,0.8399,0.8472,0.8576,0.8673,0.8727,0.8798,0.8889,0.9019,0.8996,0.9052,0.9064,0.9137,0.9273,0.9101,0.9104,0.9135,0.9453,0.9476,0.9503,0.9266,0.927,0.9274,0.9448,0,0.796,0.8052,0.8126,0.8225,0.8287,0.8389,0.8424,0.8484,0.8489,0.8522,0.8653,0.8714,0.8814,0.8851,0.8856,0.901,0.8991,0.8963,0.8905,0.903,0.9089,0.9112,0.8815,0.8813,0.8812,0.8811,0,0,0.7761,0.7893,0.7909,0.8008,0.8062,0.805,0.8157,0.8207,0.8309,0.8348,0.8315,0.8508,0.8559,0.8716,0.8757,0.8795,0.8828,0.8782,0.8969,0.8986,0.9003,0.9065,0.9089,0.8809,0.8808,0.8808,0.8807,0,0.7706,0.7753,0.7855,0.7908,0.7986,0.8013,0.8038,0.8113,0.8139,0.8264,0.8255,0.8337,0.8488,0.8546,0.8596,0.8763,0.8753,0.879,0.887,0.8955,0.8974,0.8991,0.9056,0.9078,0.8804,0.8804,0.8804,0,0.7566,0.7619,0.7671,0.7786,0.7837,0.7927,0.7874,0.797,0.8038,0.8021,0.8146,0.8186,0.8264,0.8404,0.8468,0.844,0.8684,0.8611,0.862,0.8629,0.8713,0.8736,0.8756,0.8488,0.8487,0.8486,0,0,0.7514,0.7598,0.7663,0.7777,0.781,0.7851,0.7901,0.7911,0.7979,0.8006,0.8056,0.8125,0.8214,0.8272,0.8356,0.8504,0.8525,0.857,0.8585,0.8597,0.8613,0.87,0.8722,0.8481,0.8481,0.8481,0,0,0.749,0.7569,0.756,0.7696,0.776,0.7833,0.7903,0.7895,0.7974,0.7966,0.7988,0.8007,0.8138,0.8177,0.811,0.8337,0.8278,0.8295,0.8307,0.8327,0.8341,0.8331,0.8065,0,0,0,0,0,0.7451,0.7559,0.755,0.7578,0.7723,0.7838,0.7857,0.7876,0.7834,0.789,0.793,0.7914,0.8146,0.8087,0.8115,0.8191,0.842,0.8431,0.8441,0.8492,0.8512,0.8529,0,0,0,0,0,0,0.7462,0.7495,0.7548,0.7624,0.7657,0.7834,0.7768,0.7777,0.7829,0.7824,0.7907,0.7917,0.7937,0.8074,0.8099,0.817,0.8057,0.8424,0.8434,0.8442,0.8499,0.8515,0.8529,0,0,0,0,0,0.7471,0.7498,0.7725,0.7623,0.7652,0.7703,0.7764,0.7771,0.7812,0.7874,0.7883,0.7821,0.7938,0.7961,0.8089,0.8158,0.8039,0.8049,0.843,0.8438,0.8444,0.8507,0,0,0,0,0,0,0.7477,0.7505,0.7731,0.7741,0.7582,0.7694,0.7711,0.7766,0.7858,0.7869,0.7789,0.7784,0.794,0.7958,0.7975,0.8153,0.8025,0.8035,0.8041,0.8436,0.8442,0.8447,0,0,0,0,0,0,0.7491,0.7514,0.7736,0.7684,0.7688,0.7685,0.7701,0.7812,0.786,0.7768,0.7767,0.7785,0.7915,0.7956,0.797,0.8142,0.8014,0.8023,0.803,0.8034,0.8441,0.8445,0,0,0,0,0,0,0.7501,0.752,0.7681,0.7684,0.7688,0.7796,0.7783,0.7932,0.7812,0.7765,0.7802,0.7798,0.7914,0.7928,0.7966,0.8133,0.814,0.8014,0.8021,0.8025,0.8028,0,0,0,0,0,0,0,0.7509,0.7374,0.7674,0.7685,0.7687,0.7829,0.7832,0.7834,0.7811,0.7807,0.7803,0.78,0.7962,0.7972,0.7982,0.8125,0,0,0.8014,0.8018,0,0,0,0,0,0,0,0,0.7366,0.7372,0.7675,0.7677,0.7678,0.783,0.7832,0.7834,0.7811,0.7807,0.7804,0.7801,0.7965,0.7973,0.7981,0,0,0,0,0,0,0,0,0,0,0,0,0,0,0,0.7675,0.7676,0,0.783,0.7832,0.7833,0.781,0.7808,0.7805,0.7802,0.7967,0.7974,0.798,0,0,0,0,0,0,0,0,0,0,0,0,0,0,0,0,0,0,0,0,0,0,0,0,0,0,0,0,0,0,0,0,0,0,0,0,0,0,0,0,0,0,0,0,0,0,0,0,0,0,0,0,0,0,0,0,0,0,0,0,0,0,0,0,0,0,0,0,0]}],[{"header":{"parameterUnit":"kt","parameterCategory":2,"dx":1,"dy":1,"la1":30.253999710083008,"la2":30.299108505249023,"lo1":-89.0895004272461,"lo2":-89.04439544677734,"nx":28,"ny":28,"refTime":"2022-10-13T21:00:00:Z","depth":0,"parameterNumber":2,"parameterNumberName":"V-component_of_WINDS"},"data":[-3.5682,-3.56,-3.5627,-3.5544,-3.5554,-3.55,-3.5488,-3.5476,-3.5472,-3.5409,-3.5376,-3.5391,-3.5394,-3.5358,-3.5321,-3.5327,-3.5307,-3.5262,-3.5275,-3.5464,-3.5491,-3.5517,-3.5537,-3.5259,-3.5258,-3.5073,-3.5071,-3.507,-3.5823,-3.5832,-3.5797,-3.5779,-3.5748,-3.581,-3.58,-3.5768,-3.5717,-3.5711,-3.568,-3.5625,-3.5583,-3.56,-3.5562,-3.5521,-3.5543,-3.5508,-3.5507,-3.5505,-3.571,-3.5732,-3.5491,-3.5491,-3.5491,-3.5491,-3.5491,-3.5491,-3.6084,-3.6034,-3.6039,-3.6,-3.5998,-3.5985,-3.594,-3.5961,-3.5924,-3.589,-3.5926,-3.5867,-3.5862,-3.5826,-3.5819,-3.5772,-3.5813,-3.578,-3.577,-3.5758,-3.5743,-3.6,-3.5767,-3.5768,-3.5768,-3.5769,-3.577,0,-3.6281,-3.6307,-3.6274,-3.6249,-3.6221,-3.6203,-3.6189,-3.6163,-3.6219,-3.6185,-3.6137,-3.6113,-3.6064,-3.6017,-3.5987,-3.5985,-3.6035,-3.6045,-3.6021,-3.5998,-3.5984,-3.5985,-3.6312,-3.6049,-3.6051,-3.6053,-3.6054,-3.6055,-3.6541,-3.648,-3.6497,-3.647,-3.6469,-3.6424,-3.6402,-3.6457,-3.643,-3.6419,-3.6369,-3.6327,-3.6294,-3.6209,-3.6226,-3.6187,-3.6209,-3.6106,-3.6202,-3.6187,-3.62,-3.62,-3.6192,-3.6082,-3.6078,-3.6076,-3.6073,0,-3.6683,-3.6725,-3.6638,-3.6659,-3.6663,-3.6595,-3.661,-3.6561,-3.6584,-3.6518,-3.6506,-3.6539,-3.6488,-3.6523,-3.6471,-3.6489,-3.6371,-3.6398,-3.6374,-3.6378,-3.6285,-3.629,-3.5985,-3.5946,-3.6243,-3.624,-3.6238,0,-3.6917,-3.6834,-3.69,-3.6847,-3.6757,-3.6814,-3.6722,-3.6733,-3.6731,-3.6679,-3.6747,-3.6696,-3.6749,-3.6702,-3.6729,-3.664,-3.6632,-3.6637,-3.6644,-3.6627,-3.6625,-3.6604,-3.6614,-3.6669,-3.6671,-3.6672,-3.6673,0,-3.7129,-3.7069,-3.6985,-3.6977,-3.6987,-3.6946,-3.6947,-3.6945,-3.692,-3.6895,-3.6879,-3.6844,-3.6823,-3.6794,-3.6828,-3.6892,-3.6721,-3.6816,-3.6726,-3.6725,-3.6679,-3.668,-3.641,-3.6675,-3.6675,-3.6676,-3.6676,0,-3.732,-3.7298,-3.7172,-3.7182,-3.7162,-3.7106,-3.7077,-3.7038,-3.7029,-3.7043,-3.7023,-3.7068,-3.6997,-3.7088,-3.6988,-3.7062,-3.7036,-3.7037,-3.7032,-3.7019,-3.7118,-3.6952,-3.6698,-3.6669,-3.7019,-3.7022,-3.7025,0,-3.755,-3.7433,-3.7481,-3.7358,-3.7308,-3.7387,-3.7326,-3.7316,-3.733,-3.7288,-3.7303,-3.7251,-3.7327,-3.7315,-3.7263,-3.7272,-3.7178,-3.7287,-3.7214,-3.7211,-3.7208,-3.6977,-3.6927,-3.6752,-3.7062,-3.7058,-3.7055,0,-3.7731,-3.7747,-3.7721,-3.7713,-3.7712,-3.7669,-3.7599,-3.7563,-3.7531,-3.7514,-3.7452,-3.7384,-3.7437,-3.7415,-3.7447,-3.739,-3.7243,-3.7452,-3.7453,-3.7408,-3.7085,-3.7038,-3.7008,-3.7277,-3.7273,-3.7269,-3.7085,0,-3.8001,-3.7948,-3.7883,-3.7862,-3.7836,-3.7762,-3.7799,-3.7767,-3.7802,-3.7817,-3.773,-3.7727,-3.7684,-3.7662,-3.7693,-3.7554,-3.758,-3.7635,-3.7719,-3.757,-3.7509,-3.7485,-3.7807,-3.781,-3.7812,-3.7814,0,0,-3.8206,-3.813,-3.8182,-3.8117,-3.8097,-3.8178,-3.8094,-3.8083,-3.8057,-3.804,-3.809,-3.799,-3.7983,-3.7871,-3.7828,-3.7812,-3.7787,-3.7837,-3.7642,-3.7623,-3.7605,-3.754,-3.7514,-3.7818,-3.7819,-3.782,-3.782,0,-3.831,-3.8312,-3.8231,-3.8224,-3.8215,-3.8236,-3.8217,-3.8219,-3.8224,-3.814,-3.8201,-3.8152,-3.807,-3.8054,-3.8034,-3.7855,-3.7899,-3.784,-3.773,-3.7664,-3.7642,-3.7622,-3.7553,-3.7529,-3.7826,-3.7826,-3.7825,0,-3.8491,-3.8496,-3.8462,-3.8424,-3.8416,-3.8362,-3.8463,-3.8401,-3.836,-3.8443,-3.8356,-3.8358,-3.8339,-3.8231,-3.8183,-3.8225,-3.7998,-3.8077,-3.8063,-3.8056,-3.7992,-3.7966,-3.7942,-3.8254,-3.8256,-3.8257,0,0,-3.8574,-3.8526,-3.8545,-3.8448,-3.844,-3.8469,-3.8444,-3.8475,-3.846,-3.8453,-3.8455,-3.8436,-3.8388,-3.8355,-3.8312,-3.8188,-3.8185,-3.8128,-3.8108,-3.8091,-3.8075,-3.8007,-3.7981,-3.8262,-3.8262,-3.8262,0,0,-3.8612,-3.8632,-3.8671,-3.8564,-3.855,-3.8558,-3.8495,-3.8541,-3.8506,-3.8518,-3.8563,-3.8559,-3.8458,-3.8456,-3.8522,-3.834,-3.8424,-3.8409,-3.8344,-3.8319,-3.8299,-3.8298,-3.8617,0,0,0,0,0,-3.8737,-3.8631,-3.8666,-3.8654,-3.8602,-3.854,-3.8533,-3.857,-3.863,-3.858,-3.8589,-3.8639,-3.8501,-3.856,-3.8545,-3.8468,-3.8329,-3.8317,-3.8306,-3.8194,-3.8167,-3.8145,0,0,0,0,0,0,-3.8732,-3.8717,-3.8669,-3.8672,-3.8661,-3.8544,-3.8652,-3.8659,-3.8636,-3.8647,-3.8636,-3.8639,-3.8666,-3.857,-3.8556,-3.8482,-3.8622,-3.8324,-3.8314,-3.8305,-3.8185,-3.8163,-3.8144,0,0,0,0,0,-3.8729,-3.8717,-3.8625,-3.8674,-3.8664,-3.8688,-3.8656,-3.8663,-3.8645,-3.8658,-3.8662,-3.8675,-3.8663,-3.8653,-3.8562,-3.8488,-3.8632,-3.8627,-3.8317,-3.8309,-3.8302,-3.8174,0,0,0,0,0,0,-3.8726,-3.8721,-3.8624,-3.8622,-3.8716,-3.8696,-3.8694,-3.8666,-3.8658,-3.8661,-3.8699,-3.8708,-3.866,-3.8653,-3.8645,-3.8488,-3.8641,-3.8635,-3.8631,-3.8311,-3.8305,-3.83,0,0,0,0,0,0,-3.8728,-3.8719,-3.8623,-3.8675,-3.8679,-3.8702,-3.87,-3.8627,-3.8656,-3.87,-3.8707,-3.8703,-3.867,-3.8652,-3.8646,-3.853,-3.8647,-3.8642,-3.8638,-3.8636,-3.8306,-3.8301,0,0,0,0,0,0,-3.8725,-3.8717,-3.8676,-3.8679,-3.8683,-3.8666,-3.8637,-3.8581,-3.8706,-3.8699,-3.8718,-3.8723,-3.8667,-3.8662,-3.8646,-3.8532,-3.8531,-3.8647,-3.8643,-3.8641,-3.8639,0,0,0,0,0,0,0,-3.8722,-3.8765,-3.8635,-3.8682,-3.8686,-3.8606,-3.8605,-3.8605,-3.8707,-3.8712,-3.8717,-3.8721,-3.8678,-3.8672,-3.8666,-3.8534,0,0,-3.8647,-3.8645,0,0,0,0,0,0,0,0,-3.8769,-3.8766,-3.8635,-3.8634,-3.8634,-3.8606,-3.8605,-3.8605,-3.8708,-3.8712,-3.8716,-3.8719,-3.8676,-3.8672,-3.8667,0,0,0,0,0,0,0,0,0,0,0,0,0,0,0,-3.8635,-3.8634,0,-3.8606,-3.8605,-3.8605,-3.8708,-3.8712,-3.8715,-3.8718,-3.8675,-3.8671,-3.8667,0,0,0,0,0,0,0,0,0,0,0,0,0,0,0,0,0,0,0,0,0,0,0,0,0,0,0,0,0,0,0,0,0,0,0,0,0,0,0,0,0,0,0,0,0,0,0,0,0,0,0,0,0,0,0,0,0,0,0,0,0,0,0,0,0,0,0,0,0]}]]]